Time,TemperatureF,DewpointF,PressureIn,WindDirection,WindDirectionDegrees,WindSpeedMPH,WindSpeedGustMPH,Humidity,HourlyPrecipIn,Conditions,Clouds,dailyrainin,SoftwareType,DateUTC
2013-08-08 00:00:00,83.3,72.9,29.80,NE,45,2.3,2.3,71,0.00,CLR,,0.00,WeatherDisplay:10.37,2013-08-08 05:00:00,
2013-08-08 00:05:00,83.1,72.7,29.81,SW,225,3.5,0.0,71,0.00,CLR,,0.00,WeatherDisplay:10.37,2013-08-08 05:05:00,
2013-08-08 00:10:00,83.1,72.7,29.81,SW,225,1.1,0.0,71,0.00,CLR,,0.00,WeatherDisplay:10.37,2013-08-08 05:10:00,
2013-08-08 00:15:00,82.9,73.0,29.80,East,90,3.5,0.0,72,0.00,CLR,,0.00,WeatherDisplay:10.37,2013-08-08 05:15:00,
2013-08-08 00:20:00,82.8,72.8,29.81,SE,135,1.1,0.0,72,0.00,CLR,,0.00,WeatherDisplay:10.37,2013-08-08 05:20:00,
2013-08-08 00:25:00,82.8,72.8,29.81,NNE,22,2.3,0.0,72,0.00,CLR,,0.00,WeatherDisplay:10.37,2013-08-08 05:25:00,
2013-08-08 00:29:00,57.6,54.0,30.10,North,360,1.6,1.6,88,0.00,,,0.00,Cumulus v1.9.2,2013-08-08 05:29:00,
2013-08-08 00:30:00,82.6,73.0,29.81,North,0,2.3,2.3,73,0.00,CLR,,0.00,WeatherDisplay:10.37,2013-08-08 05:30:00,
2013-08-08 00:35:00,82.4,72.9,29.80,East,90,3.5,3.5,73,0.00,CLR,,0.00,WeatherDisplay:10.37,2013-08-08 05:35:00,
2013-08-08 00:40:00,82.2,72.7,29.80,ESE,112,1.1,0.0,73,0.00,CLR,,0.00,WeatherDisplay:10.37,2013-08-08 05:40:00,
2013-08-08 00:45:00,82.0,72.9,29.80,SE,135,2.3,0.0,74,0.00,CLR,,0.00,WeatherDisplay:10.37,2013-08-08 05:45:00,
2013-08-08 00:50:00,82.0,72.9,29.81,East,90,1.1,0.0,74,0.00,CLR,,0.00,WeatherDisplay:10.37,2013-08-08 05:50:00,
2013-08-08 00:55:00,81.7,73.0,29.81,SE,135,3.5,3.5,75,0.00,CLR,,0.00,WeatherDisplay:10.37,2013-08-08 05:55:00,
2013-08-08 00:59:00,57.6,53.7,30.11,NE,45,1.6,1.6,87,0.00,,,0.00,Cumulus v1.9.2,2013-08-08 05:59:00,
2013-08-08 01:00:00,81.7,73.0,29.80,South,180,3.5,0.0,75,0.00,CLR,,0.00,WeatherDisplay:10.37,2013-08-08 06:00:00,
2013-08-08 01:05:00,81.3,72.6,29.80,SW,225,2.3,0.0,75,0.00,CLR,,0.00,WeatherDisplay:10.37,2013-08-08 06:05:00,
2013-08-08 01:10:00,81.3,73.0,29.81,West,270,1.6,0.0,76,0.00,CLR,,0.00,WeatherDisplay:10.37,2013-08-08 06:10:00,
2013-08-08 01:15:00,81.1,72.9,29.80,SW,225,0.0,0.0,76,0.00,CLR,,0.00,WeatherDisplay:10.37,2013-08-08 06:15:00,
2013-08-08 01:20:00,80.8,72.5,29.81,NW,315,1.1,0.0,76,0.00,CLR,,0.00,WeatherDisplay:10.37,2013-08-08 06:20:00,
2013-08-08 01:25:00,80.6,72.7,29.81,South,180,1.1,0.0,77,0.00,CLR,,0.00,WeatherDisplay:10.37,2013-08-08 06:25:00,
2013-08-08 01:29:00,57.2,53.7,30.11,North,360,1.6,1.6,88,0.00,,,0.00,Cumulus v1.9.2,2013-08-08 06:29:00,
2013-08-08 01:30:00,80.6,73.1,29.81,NE,45,1.1,0.0,78,0.00,CLR,,0.00,WeatherDisplay:10.37,2013-08-08 06:30:00,
2013-08-08 01:35:00,80.4,72.9,29.81,SE,135,0.0,0.0,78,0.00,CLR,,0.00,WeatherDisplay:10.37,2013-08-08 06:35:00,
2013-08-08 01:40:00,80.2,72.8,29.81,South,180,0.0,0.0,78,0.00,CLR,,0.00,WeatherDisplay:10.37,2013-08-08 06:40:00,
2013-08-08 01:45:00,80.2,72.8,29.81,South,180,0.0,0.0,78,0.00,CLR,,0.00,WeatherDisplay:10.37,2013-08-08 06:45:00,
2013-08-08 01:50:00,79.9,72.4,29.81,South,180,0.0,0.0,78,0.00,CLR,,0.00,WeatherDisplay:10.37,2013-08-08 06:50:00,
2013-08-08 01:55:00,79.9,72.8,29.81,SW,225,0.0,0.0,79,0.00,CLR,,0.00,WeatherDisplay:10.37,2013-08-08 06:55:00,
2013-08-08 01:59:00,56.7,53.5,30.12,North,360,2.2,2.2,89,0.00,,,0.00,Cumulus v1.9.2,2013-08-08 06:59:00,
2013-08-08 02:00:00,79.7,73.0,29.80,SE,135,0.0,0.0,80,0.00,CLR,,0.00,WeatherDisplay:10.37,2013-08-08 07:00:00,
2013-08-08 02:05:00,79.5,72.8,29.80,SE,135,0.0,0.0,80,0.00,CLR,,0.00,WeatherDisplay:10.37,2013-08-08 07:05:00,
2013-08-08 02:10:00,79.3,73.0,29.81,SW,225,0.0,0.0,81,0.00,CLR,,0.00,WeatherDisplay:10.37,2013-08-08 07:10:00,
2013-08-08 02:15:00,79.2,72.8,29.80,SW,225,0.0,0.0,81,0.00,CLR,,0.00,WeatherDisplay:10.37,2013-08-08 07:15:00,
2013-08-08 02:20:00,79.2,73.2,29.80,SSW,202,0.0,0.0,82,0.00,CLR,,0.00,WeatherDisplay:10.37,2013-08-08 07:20:00,
2013-08-08 02:25:00,79.0,73.0,29.81,NE,45,0.0,0.0,82,0.00,CLR,,0.00,WeatherDisplay:10.37,2013-08-08 07:25:00,
2013-08-08 02:29:00,55.8,52.9,30.14,NE,45,1.6,1.6,90,0.00,,,0.00,Cumulus v1.9.2,2013-08-08 07:29:00,
2013-08-08 02:30:00,79.0,73.4,29.80,SW,225,1.1,0.0,83,0.00,CLR,,0.00,WeatherDisplay:10.37,2013-08-08 07:30:00,
2013-08-08 02:35:00,79.0,73.7,29.80,WSW,248,2.3,2.3,84,0.00,CLR,,0.00,WeatherDisplay:10.37,2013-08-08 07:35:00,
2013-08-08 02:40:00,78.8,73.2,29.80,SW,225,1.1,0.0,83,0.00,CLR,,0.00,WeatherDisplay:10.37,2013-08-08 07:40:00,
2013-08-08 02:45:00,78.8,73.6,29.81,NW,315,0.0,0.0,84,0.00,CLR,,0.00,WeatherDisplay:10.37,2013-08-08 07:45:00,
2013-08-08 02:50:00,78.6,73.4,29.80,East,90,1.1,0.0,84,0.00,CLR,,0.00,WeatherDisplay:10.37,2013-08-08 07:50:00,
2013-08-08 02:55:00,78.6,73.7,29.80,NW,315,1.1,0.0,85,0.00,CLR,,0.00,WeatherDisplay:10.37,2013-08-08 07:55:00,
2013-08-08 02:59:00,55.4,52.8,30.14,NE,45,1.6,1.6,91,0.00,,,0.00,Cumulus v1.9.2,2013-08-08 07:59:00,
2013-08-08 03:00:00,78.6,74.1,29.80,NE,45,2.3,0.0,86,0.00,CLR,,0.00,WeatherDisplay:10.37,2013-08-08 08:00:00,
2013-08-08 03:05:00,78.6,74.1,29.80,North,0,0.0,0.0,86,0.00,CLR,,0.00,WeatherDisplay:10.37,2013-08-08 08:05:00,
2013-08-08 03:10:00,78.6,74.1,29.79,South,180,1.1,0.0,86,0.00,CLR,,0.00,WeatherDisplay:10.37,2013-08-08 08:10:00,
2013-08-08 03:15:00,78.4,73.9,29.80,SW,225,1.1,0.0,86,0.00,CLR,,0.00,WeatherDisplay:10.37,2013-08-08 08:15:00,
2013-08-08 03:20:00,78.3,73.7,29.79,SW,225,0.0,0.0,86,0.00,CLR,,0.00,WeatherDisplay:10.37,2013-08-08 08:20:00,
2013-08-08 03:25:00,78.3,73.7,29.79,SW,225,0.0,0.0,86,0.00,CLR,,0.00,WeatherDisplay:10.37,2013-08-08 08:25:00,
2013-08-08 03:29:00,55.4,53.1,30.14,North,360,1.6,1.6,92,0.00,,,0.00,Cumulus v1.9.2,2013-08-08 08:29:00,
2013-08-08 03:30:00,78.1,73.9,29.80,NE,45,1.1,0.0,87,0.00,CLR,,0.00,WeatherDisplay:10.37,2013-08-08 08:30:00,
2013-08-08 03:35:00,78.1,73.9,29.80,NE,45,0.0,0.0,87,0.00,CLR,,0.00,WeatherDisplay:10.37,2013-08-08 08:35:00,
2013-08-08 03:40:00,78.1,73.9,29.80,South,180,0.0,0.0,87,0.00,CLR,,0.00,WeatherDisplay:10.37,2013-08-08 08:40:00,
2013-08-08 03:45:00,77.7,73.9,29.80,South,180,0.0,0.0,88,0.00,CLR,,0.00,WeatherDisplay:10.37,2013-08-08 08:45:00,
2013-08-08 03:50:00,77.7,73.9,29.79,South,180,0.0,0.0,88,0.00,CLR,,0.00,WeatherDisplay:10.37,2013-08-08 08:50:00,
2013-08-08 03:55:00,77.5,73.7,29.80,South,180,0.0,0.0,88,0.00,CLR,,0.00,WeatherDisplay:10.37,2013-08-08 08:55:00,
2013-08-08 03:59:00,56.5,54.2,30.14,NE,45,2.2,2.2,92,0.00,,,0.00,Cumulus v1.9.2,2013-08-08 08:59:00,
2013-08-08 04:00:00,77.5,74.0,29.80,South,180,0.0,0.0,89,0.00,CLR,,0.00,WeatherDisplay:10.37,2013-08-08 09:00:00,
2013-08-08 04:05:00,77.4,73.9,29.80,North,0,0.0,0.0,89,0.00,CLR,,0.00,WeatherDisplay:10.37,2013-08-08 09:05:00,
2013-08-08 04:10:00,77.4,73.9,29.80,SW,225,0.0,0.0,89,0.00,CLR,,0.00,WeatherDisplay:10.37,2013-08-08 09:10:00,
2013-08-08 04:15:00,77.4,74.2,29.80,SW,225,0.0,0.0,90,0.00,CLR,,0.00,WeatherDisplay:10.37,2013-08-08 09:15:00,
2013-08-08 04:20:00,77.2,74.0,29.80,SW,225,0.0,0.0,90,0.00,CLR,,0.00,WeatherDisplay:10.37,2013-08-08 09:20:00,
2013-08-08 04:25:00,77.2,74.0,29.80,SW,225,0.0,0.0,90,0.00,CLR,,0.00,WeatherDisplay:10.37,2013-08-08 09:25:00,
2013-08-08 04:29:00,57.4,54.2,30.15,NE,45,2.2,2.2,89,0.00,,,0.00,Cumulus v1.9.2,2013-08-08 09:29:00,
2013-08-08 04:30:00,77.0,73.8,29.80,SW,225,0.0,0.0,90,0.00,CLR,,0.00,WeatherDisplay:10.37,2013-08-08 09:30:00,
2013-08-08 04:35:00,77.0,73.8,29.80,SW,225,0.0,0.0,90,0.00,CLR,,0.00,WeatherDisplay:10.37,2013-08-08 09:35:00,
2013-08-08 04:40:00,77.0,74.2,29.80,SW,225,0.0,0.0,91,0.00,CLR,,0.00,WeatherDisplay:10.37,2013-08-08 09:40:00,
2013-08-08 04:45:00,76.8,74.3,29.80,SW,225,0.0,0.0,92,0.00,CLR,,0.00,WeatherDisplay:10.37,2013-08-08 09:45:00,
2013-08-08 04:50:00,76.6,74.1,29.80,SW,225,0.0,0.0,92,0.00,CLR,,0.00,WeatherDisplay:10.37,2013-08-08 09:50:00,
2013-08-08 04:55:00,76.6,74.1,29.81,SW,225,0.0,0.0,92,0.00,CLR,,0.00,WeatherDisplay:10.37,2013-08-08 09:55:00,
2013-08-08 04:59:00,57.7,54.5,30.15,NE,45,1.6,1.6,89,0.00,,,0.00,Cumulus v1.9.2,2013-08-08 09:59:00,
2013-08-08 05:00:00,76.6,74.1,29.81,SW,225,0.0,0.0,92,0.00,CLR,,0.00,WeatherDisplay:10.37,2013-08-08 10:00:00,
2013-08-08 05:05:00,76.6,74.5,29.81,SW,225,0.0,0.0,93,0.00,CLR,,0.00,WeatherDisplay:10.37,2013-08-08 10:05:00,
2013-08-08 05:10:00,76.5,74.3,29.81,SW,225,0.0,0.0,93,0.00,CLR,,0.00,WeatherDisplay:10.37,2013-08-08 10:10:00,
2013-08-08 05:15:00,76.5,74.6,29.81,SW,225,1.1,0.0,94,0.00,CLR,,0.00,WeatherDisplay:10.37,2013-08-08 10:15:00,
2013-08-08 05:20:00,76.5,74.6,29.80,SW,225,1.1,0.0,94,0.00,CLR,,0.00,WeatherDisplay:10.37,2013-08-08 10:20:00,
2013-08-08 05:25:00,76.5,74.9,29.81,North,0,0.0,0.0,95,0.00,CLR,,0.00,WeatherDisplay:10.37,2013-08-08 10:25:00,
2013-08-08 05:29:00,59.4,54.8,30.16,West,270,1.6,1.6,85,0.00,,,0.00,Cumulus v1.9.2,2013-08-08 10:29:00,
2013-08-08 05:30:00,76.5,74.9,29.81,NE,45,1.1,0.0,95,0.00,CLR,,0.00,WeatherDisplay:10.37,2013-08-08 10:30:00,
2013-08-08 05:35:00,76.3,74.7,29.81,NE,45,0.0,0.0,95,0.00,CLR,,0.00,WeatherDisplay:10.37,2013-08-08 10:35:00,
2013-08-08 05:40:00,76.5,75.2,29.82,SW,225,1.6,0.0,96,0.00,CLR,,0.00,WeatherDisplay:10.37,2013-08-08 10:40:00,
2013-08-08 05:45:00,76.5,75.2,29.81,SE,135,2.3,0.0,96,0.00,CLR,,0.00,WeatherDisplay:10.37,2013-08-08 10:45:00,
2013-08-08 05:50:00,76.5,75.2,29.81,SE,135,0.0,0.0,96,0.00,CLR,,0.00,WeatherDisplay:10.37,2013-08-08 10:50:00,
2013-08-08 05:55:00,76.5,74.9,29.81,SE,135,0.0,0.0,95,0.00,CLR,,0.00,WeatherDisplay:10.37,2013-08-08 10:55:00,
2013-08-08 05:59:00,59.9,55.1,30.17,NW,315,3.8,3.8,84,0.00,,,0.00,Cumulus v1.9.2,2013-08-08 10:59:00,
2013-08-08 06:00:00,76.5,74.9,29.81,SE,135,0.0,0.0,95,0.00,CLR,,0.00,WeatherDisplay:10.37,2013-08-08 11:00:00,
2013-08-08 06:05:00,76.3,74.7,29.82,SE,135,0.0,0.0,95,0.00,CLR,,0.00,WeatherDisplay:10.37,2013-08-08 11:05:00,
2013-08-08 06:10:00,76.1,74.6,29.82,SE,135,0.0,0.0,95,0.00,CLR,,0.00,WeatherDisplay:10.37,2013-08-08 11:10:00,
2013-08-08 06:15:00,76.1,74.6,29.82,SE,135,0.0,0.0,95,0.00,CLR,,0.00,WeatherDisplay:10.37,2013-08-08 11:15:00,
2013-08-08 06:20:00,76.1,74.6,29.83,SE,135,0.0,0.0,95,0.00,CLR,,0.00,WeatherDisplay:10.37,2013-08-08 11:20:00,
2013-08-08 06:25:00,75.9,74.4,29.82,SE,135,0.0,0.0,95,0.00,CLR,,0.00,WeatherDisplay:10.37,2013-08-08 11:25:00,
2013-08-08 06:29:00,61.0,55.4,30.17,North,360,2.2,2.2,82,0.00,,,0.00,Cumulus v1.9.2,2013-08-08 11:29:00,
2013-08-08 06:30:00,75.7,74.5,29.82,SE,135,0.0,0.0,96,0.00,CLR,,0.00,WeatherDisplay:10.37,2013-08-08 11:30:00,
2013-08-08 06:35:00,75.7,74.5,29.82,SE,135,0.0,0.0,96,0.00,CLR,,0.00,WeatherDisplay:10.37,2013-08-08 11:35:00,
2013-08-08 06:40:00,75.9,75.0,29.83,SE,135,0.0,0.0,97,0.00,CLR,,0.00,WeatherDisplay:10.37,2013-08-08 11:40:00,
2013-08-08 06:45:00,75.9,75.0,29.83,SE,135,0.0,0.0,97,0.00,CLR,,0.00,WeatherDisplay:10.37,2013-08-08 11:45:00,
2013-08-08 06:50:00,75.9,75.3,29.83,SE,135,0.0,0.0,98,0.00,CLR,,0.00,WeatherDisplay:10.37,2013-08-08 11:50:00,
2013-08-08 06:55:00,76.5,76.2,29.83,SE,135,0.0,0.0,99,0.00,CLR,,0.00,WeatherDisplay:10.37,2013-08-08 11:55:00,
2013-08-08 06:59:00,62.2,55.6,30.16,NE,45,2.2,2.2,79,0.00,,,0.00,Cumulus v1.9.2,2013-08-08 11:59:00,
2013-08-08 07:00:00,76.8,76.5,29.83,SE,135,0.0,0.0,99,0.00,CLR,,0.00,WeatherDisplay:10.37,2013-08-08 12:00:00,
2013-08-08 07:05:00,77.2,76.9,29.83,West,270,0.0,0.0,99,0.00,CLR,,0.00,WeatherDisplay:10.37,2013-08-08 12:05:00,
2013-08-08 07:10:00,77.5,77.2,29.84,West,270,1.1,0.0,99,0.00,CLR,,0.00,WeatherDisplay:10.37,2013-08-08 12:10:00,
2013-08-08 07:15:00,77.7,77.4,29.84,North,0,1.1,0.0,99,0.00,CLR,,0.00,WeatherDisplay:10.37,2013-08-08 12:15:00,
2013-08-08 07:20:00,77.7,77.4,29.84,SW,225,1.1,0.0,99,0.00,CLR,,0.00,WeatherDisplay:10.37,2013-08-08 12:20:00,
2013-08-08 07:25:00,78.3,78.0,29.84,North,0,1.1,0.0,99,0.00,CLR,,0.00,WeatherDisplay:10.37,2013-08-08 12:25:00,
2013-08-08 07:29:00,64.0,56.3,30.15,North,360,3.1,3.1,76,0.00,,,0.00,Cumulus v1.9.2,2013-08-08 12:29:00,
2013-08-08 07:30:00,78.3,78.0,29.84,NE,45,1.1,0.0,99,0.00,CLR,,0.00,WeatherDisplay:10.37,2013-08-08 12:30:00,
2013-08-08 07:35:00,78.4,78.1,29.84,West,270,1.1,0.0,99,0.00,CLR,,0.00,WeatherDisplay:10.37,2013-08-08 12:35:00,
2013-08-08 07:40:00,78.6,78.3,29.84,West,270,0.0,0.0,99,0.00,CLR,,0.00,WeatherDisplay:10.37,2013-08-08 12:40:00,
2013-08-08 07:45:00,78.6,78.3,29.84,West,270,2.3,2.3,99,0.00,CLR,,0.00,WeatherDisplay:10.37,2013-08-08 12:45:00,
2013-08-08 07:50:00,78.6,78.3,29.84,NE,45,0.0,0.0,99,0.00,CLR,,0.00,WeatherDisplay:10.37,2013-08-08 12:50:00,
2013-08-08 07:55:00,78.6,78.3,29.84,East,90,1.1,0.0,99,0.00,CLR,,0.00,WeatherDisplay:10.37,2013-08-08 12:55:00,
2013-08-08 07:59:00,64.0,56.0,30.14,North,360,2.2,2.2,75,0.00,,,0.00,Cumulus v1.9.2,2013-08-08 12:59:00,
2013-08-08 08:00:00,78.8,78.5,29.84,NE,45,1.1,1.1,99,0.00,CLR,,0.00,WeatherDisplay:10.37,2013-08-08 13:00:00,
2013-08-08 08:05:00,78.8,78.5,29.84,NE,45,1.1,0.0,99,0.00,CLR,,0.00,WeatherDisplay:10.37,2013-08-08 13:05:00,
2013-08-08 08:10:00,79.0,78.7,29.84,NE,45,1.1,0.0,99,0.00,CLR,,0.00,WeatherDisplay:10.37,2013-08-08 13:10:00,
2013-08-08 08:15:00,79.2,78.9,29.84,West,270,1.1,0.0,99,0.00,CLR,,0.00,WeatherDisplay:10.37,2013-08-08 13:15:00,
2013-08-08 08:20:00,79.3,78.7,29.84,SE,135,2.3,2.3,98,0.00,CLR,,0.00,WeatherDisplay:10.37,2013-08-08 13:20:00,
2013-08-08 08:25:00,79.5,78.9,29.84,NW,315,1.1,1.1,98,0.00,CLR,,0.00,WeatherDisplay:10.37,2013-08-08 13:25:00,
2013-08-08 08:29:00,64.4,56.3,30.14,NNE,22,3.1,3.1,75,0.00,,,0.00,Cumulus v1.9.2,2013-08-08 13:29:00,
2013-08-08 08:30:00,79.5,78.9,29.84,West,270,1.1,0.0,98,0.00,CLR,,0.00,WeatherDisplay:10.37,2013-08-08 13:30:00,
2013-08-08 08:35:00,79.9,79.3,29.84,NE,45,1.1,0.0,98,0.00,CLR,,0.00,WeatherDisplay:10.37,2013-08-08 13:35:00,
2013-08-08 08:40:00,80.1,79.1,29.84,South,180,1.1,0.0,97,0.00,CLR,,0.00,WeatherDisplay:10.37,2013-08-08 13:40:00,
2013-08-08 08:45:00,80.2,79.3,29.84,ENE,68,2.3,2.3,97,0.00,CLR,,0.00,WeatherDisplay:10.37,2013-08-08 13:45:00,
2013-08-08 08:50:00,80.6,79.4,29.85,East,90,2.3,0.0,96,0.00,CLR,,0.00,WeatherDisplay:10.37,2013-08-08 13:50:00,
2013-08-08 08:55:00,81.0,79.4,29.85,SW,225,2.3,0.0,95,0.00,CLR,,0.00,WeatherDisplay:10.37,2013-08-08 13:55:00,
2013-08-08 08:59:00,64.6,56.5,30.11,NE,45,4.5,4.5,75,0.00,,,0.00,Cumulus v1.9.2,2013-08-08 13:59:00,
2013-08-08 09:00:00,81.1,79.2,29.85,South,180,3.5,0.0,94,0.00,CLR,,0.00,WeatherDisplay:10.37,2013-08-08 14:00:00,
2013-08-08 09:05:00,81.5,79.3,29.85,SW,225,1.1,0.0,93,0.00,CLR,,0.00,WeatherDisplay:10.37,2013-08-08 14:05:00,
2013-08-08 09:10:00,81.7,78.8,29.84,SW,225,2.3,0.0,91,0.00,CLR,,0.00,WeatherDisplay:10.37,2013-08-08 14:10:00,
2013-08-08 09:15:00,81.9,78.6,29.84,East,90,2.3,0.0,90,0.00,CLR,,0.00,WeatherDisplay:10.37,2013-08-08 14:15:00,
2013-08-08 09:20:00,82.0,78.1,29.85,NW,315,3.5,3.5,88,0.00,CLR,,0.00,WeatherDisplay:10.37,2013-08-08 14:20:00,
2013-08-08 09:25:00,82.4,77.1,29.85,SW,225,3.5,0.0,84,0.00,CLR,,0.00,WeatherDisplay:10.37,2013-08-08 14:25:00,
2013-08-08 09:29:00,65.7,57.1,30.10,NW,315,3.8,3.8,74,0.00,,,0.00,Cumulus v1.9.2,2013-08-08 14:29:00,
2013-08-08 09:30:00,82.8,77.8,29.85,NW,315,1.1,0.0,85,0.00,CLR,,0.00,WeatherDisplay:10.37,2013-08-08 14:30:00,
2013-08-08 09:35:00,83.1,78.1,29.85,NW,315,1.1,1.1,85,0.00,CLR,,0.00,WeatherDisplay:10.37,2013-08-08 14:35:00,
2013-08-08 09:40:00,83.5,76.7,29.84,SW,225,1.1,0.0,80,0.00,CLR,,0.00,WeatherDisplay:10.37,2013-08-08 14:40:00,
2013-08-08 09:45:00,83.8,76.2,29.84,West,270,1.1,1.6,78,0.00,CLR,,0.00,WeatherDisplay:10.37,2013-08-08 14:45:00,
2013-08-08 09:50:00,84.0,76.0,29.85,North,0,3.5,3.5,77,0.00,CLR,,0.00,WeatherDisplay:10.37,2013-08-08 14:50:00,
2013-08-08 09:56:00,84.6,76.2,29.85,North,0,2.3,2.3,76,0.00,CLR,,0.00,WeatherDisplay:10.37,2013-08-08 14:56:00,
2013-08-08 09:59:00,67.1,57.4,30.09,NNE,22,3.8,3.8,71,0.00,,,0.00,Cumulus v1.9.2,2013-08-08 14:59:00,
2013-08-08 10:01:00,85.1,75.5,29.85,SW,225,3.5,3.5,73,0.00,CLR,,0.00,WeatherDisplay:10.37,2013-08-08 15:01:00,
2013-08-08 10:06:00,85.6,74.7,29.85,NE,45,3.5,3.5,70,0.00,CLR,,0.00,WeatherDisplay:10.37,2013-08-08 15:06:00,
2013-08-08 10:11:00,86.4,75.4,29.85,NNE,22,2.3,2.3,70,0.00,CLR,,0.00,WeatherDisplay:10.37,2013-08-08 15:11:00,
2013-08-08 10:16:00,87.4,75.1,29.85,NW,315,2.3,2.3,67,0.00,CLR,,0.00,WeatherDisplay:10.37,2013-08-08 15:16:00,
2013-08-08 10:21:00,88.5,74.8,29.85,South,180,3.5,3.5,64,0.00,CLR,,0.00,WeatherDisplay:10.37,2013-08-08 15:21:00,
2013-08-08 10:26:00,89.4,73.7,29.85,SW,225,3.5,3.5,60,0.00,CLR,,0.00,WeatherDisplay:10.37,2013-08-08 15:26:00,
2013-08-08 10:29:00,68.5,58.8,30.09,NE,45,3.8,3.8,71,0.00,,,0.00,Cumulus v1.9.2,2013-08-08 15:29:00,
2013-08-08 10:31:00,90.1,74.9,29.85,East,90,3.5,3.5,61,0.00,CLR,,0.00,WeatherDisplay:10.37,2013-08-08 15:31:00,
2013-08-08 10:36:00,91.0,73.2,29.85,North,0,3.5,3.5,56,0.00,CLR,,0.00,WeatherDisplay:10.37,2013-08-08 15:36:00,
2013-08-08 10:41:00,91.8,74.9,29.85,SW,225,1.6,0.0,58,0.00,CLR,,0.00,WeatherDisplay:10.37,2013-08-08 15:41:00,
2013-08-08 10:46:00,92.5,74.0,29.85,North,0,1.1,0.0,55,0.00,CLR,,0.00,WeatherDisplay:10.37,2013-08-08 15:46:00,
2013-08-08 10:51:00,93.4,74.2,29.85,SW,225,3.1,3.1,54,0.00,CLR,,0.00,WeatherDisplay:10.37,2013-08-08 15:51:00,
2013-08-08 10:56:00,93.6,71.5,29.85,NE,45,1.1,0.0,49,0.00,CLR,,0.00,WeatherDisplay:10.37,2013-08-08 15:56:00,
2013-08-08 10:59:00,68.9,58.7,30.08,NW,315,2.2,2.2,70,0.00,,,0.00,Cumulus v1.9.2,2013-08-08 15:59:00,
2013-08-08 11:01:00,93.9,73.6,29.85,East,90,2.3,2.3,52,0.00,CLR,,0.00,WeatherDisplay:10.37,2013-08-08 16:01:00,
2013-08-08 11:06:00,94.3,71.6,29.85,SE,135,4.6,4.6,48,0.00,CLR,,0.00,WeatherDisplay:10.37,2013-08-08 16:06:00,
2013-08-08 11:11:00,94.1,70.8,29.85,East,90,3.5,3.5,47,0.00,CLR,,0.00,WeatherDisplay:10.37,2013-08-08 16:11:00,
2013-08-08 11:16:00,94.5,70.5,29.85,South,180,3.5,3.5,46,0.00,CLR,,0.00,WeatherDisplay:10.37,2013-08-08 16:16:00,
2013-08-08 11:21:00,95.5,70.8,29.85,West,270,2.3,2.3,45,0.00,CLR,,0.00,WeatherDisplay:10.37,2013-08-08 16:21:00,
2013-08-08 11:26:00,96.1,72.0,29.85,South,180,3.5,0.0,46,0.00,CLR,,0.00,WeatherDisplay:10.37,2013-08-08 16:26:00,
2013-08-08 11:29:00,68.4,58.6,30.08,North,360,3.1,3.1,71,0.00,,,0.00,Cumulus v1.9.2,2013-08-08 16:29:00,
2013-08-08 11:31:00,96.1,72.0,29.85,ENE,68,4.6,4.6,46,0.00,CLR,,0.00,WeatherDisplay:10.37,2013-08-08 16:31:00,
2013-08-08 11:36:00,95.7,71.6,29.84,NE,45,1.1,1.1,46,0.00,CLR,,0.00,WeatherDisplay:10.37,2013-08-08 16:36:00,
2013-08-08 11:41:00,96.1,72.0,29.84,East,90,3.5,3.5,46,0.00,CLR,,0.00,WeatherDisplay:10.37,2013-08-08 16:41:00,
2013-08-08 11:46:00,97.0,69.4,29.84,East,90,2.3,2.3,41,0.00,CLR,,0.00,WeatherDisplay:10.37,2013-08-08 16:46:00,
2013-08-08 11:51:00,97.2,68.8,29.84,NE,45,2.3,2.3,40,0.00,CLR,,0.00,WeatherDisplay:10.37,2013-08-08 16:51:00,
2013-08-08 11:56:00,98.4,70.7,29.84,South,180,1.1,0.0,41,0.00,CLR,,0.00,WeatherDisplay:10.37,2013-08-08 16:56:00,
2013-08-08 11:59:00,67.8,58.5,30.07,NE,45,3.8,3.8,72,0.00,,,0.00,Cumulus v1.9.2,2013-08-08 16:59:00,
2013-08-08 12:01:00,98.8,65.5,29.84,South,180,4.6,4.6,34,0.00,CLR,,0.00,WeatherDisplay:10.37,2013-08-08 17:01:00,
2013-08-08 12:06:00,98.8,63.8,29.83,East,90,5.8,5.8,32,0.00,CLR,,0.00,WeatherDisplay:10.37,2013-08-08 17:06:00,
2013-08-08 12:11:00,99.1,65.0,29.83,NE,45,3.5,3.5,33,0.00,CLR,,0.00,WeatherDisplay:10.37,2013-08-08 17:11:00,
2013-08-08 12:16:00,99.3,66.8,29.82,West,270,3.5,3.5,35,0.00,CLR,,0.00,WeatherDisplay:10.37,2013-08-08 17:16:00,
2013-08-08 12:21:00,99.1,63.2,29.82,SW,225,9.2,9.2,31,0.00,CLR,,0.00,WeatherDisplay:10.37,2013-08-08 17:21:00,
2013-08-08 12:26:00,99.5,62.6,29.82,SE,135,3.5,3.5,30,0.00,CLR,,0.00,WeatherDisplay:10.37,2013-08-08 17:26:00,
2013-08-08 12:29:00,66.6,57.6,30.08,ENE,68,4.5,4.5,73,0.00,,,0.00,Cumulus v1.9.2,2013-08-08 17:29:00,
2013-08-08 12:31:00,99.7,59.8,29.81,SE,135,5.8,5.8,27,0.00,CLR,,0.00,WeatherDisplay:10.37,2013-08-08 17:31:00,
2013-08-08 12:36:00,99.9,59.9,29.81,SE,135,2.3,2.3,27,0.00,CLR,,0.00,WeatherDisplay:10.37,2013-08-08 17:36:00,
2013-08-08 12:41:00,100.0,61.1,29.81,SE,135,2.3,2.3,28,0.00,CLR,,0.00,WeatherDisplay:10.37,2013-08-08 17:41:00,
2013-08-08 12:46:00,100.6,62.5,29.81,East,90,3.5,3.5,29,0.00,CLR,,0.00,WeatherDisplay:10.37,2013-08-08 17:46:00,
2013-08-08 12:51:00,100.9,61.8,29.81,SW,225,3.5,3.5,28,0.00,CLR,,0.00,WeatherDisplay:10.37,2013-08-08 17:51:00,
2013-08-08 12:56:00,100.9,61.8,29.81,NE,45,3.5,3.5,28,0.00,CLR,,0.00,WeatherDisplay:10.37,2013-08-08 17:56:00,
2013-08-08 12:59:00,64.2,56.5,30.08,North,360,2.2,2.2,76,0.00,,,0.00,Cumulus v1.9.2,2013-08-08 17:59:00,
2013-08-08 13:01:00,100.9,61.8,29.81,ENE,68,3.1,3.1,28,0.00,CLR,,0.00,WeatherDisplay:10.37,2013-08-08 18:01:00,
2013-08-08 13:06:00,101.5,61.3,29.81,West,270,2.3,2.3,27,0.00,CLR,,0.00,WeatherDisplay:10.37,2013-08-08 18:06:00,
2013-08-08 13:11:00,101.3,60.1,29.80,East,90,2.3,2.3,26,0.00,CLR,,0.00,WeatherDisplay:10.37,2013-08-08 18:11:00,
2013-08-08 13:16:00,100.8,59.6,29.80,North,0,3.5,3.5,26,0.00,CLR,,0.00,WeatherDisplay:10.37,2013-08-08 18:16:00,
2013-08-08 13:21:00,100.9,59.8,29.80,SW,225,2.3,2.3,26,0.00,CLR,,0.00,WeatherDisplay:10.37,2013-08-08 18:21:00,
2013-08-08 13:26:00,101.1,56.5,29.80,NE,45,3.5,3.5,23,0.00,CLR,,0.00,WeatherDisplay:10.37,2013-08-08 18:26:00,
2013-08-08 13:29:00,61.5,54.9,30.09,NE,45,0.7,0.7,79,0.00,,,0.00,Cumulus v1.9.2,2013-08-08 18:29:00,
2013-08-08 13:31:00,100.8,53.7,29.81,East,90,4.6,4.6,21,0.00,CLR,,0.00,WeatherDisplay:10.37,2013-08-08 18:31:00,
2013-08-08 13:36:00,100.9,56.3,29.81,East,90,3.5,3.5,23,0.00,CLR,,0.00,WeatherDisplay:10.37,2013-08-08 18:36:00,
2013-08-08 13:41:00,101.3,52.8,29.81,SW,225,3.5,3.5,20,0.00,CLR,,0.00,WeatherDisplay:10.37,2013-08-08 18:41:00,
2013-08-08 13:46:00,101.5,54.3,29.80,NE,45,3.5,3.5,21,0.00,CLR,,0.00,WeatherDisplay:10.37,2013-08-08 18:46:00,
2013-08-08 13:51:00,102.2,52.1,29.80,SW,225,3.5,3.5,19,0.00,CLR,,0.00,WeatherDisplay:10.37,2013-08-08 18:51:00,
2013-08-08 13:56:00,102.6,56.5,29.80,East,90,3.5,0.0,22,0.00,CLR,,0.00,WeatherDisplay:10.37,2013-08-08 18:56:00,
2013-08-08 13:59:00,60.4,55.3,30.09,NNE,22,2.2,2.2,83,0.00,,,0.00,Cumulus v1.9.2,2013-08-08 18:59:00,
2013-08-08 14:01:00,103.6,60.9,29.80,SE,135,3.5,0.0,25,0.00,CLR,,0.00,WeatherDisplay:10.37,2013-08-08 19:01:00,
2013-08-08 14:06:00,104.0,55.0,29.80,East,90,5.8,5.8,20,0.00,CLR,,0.00,WeatherDisplay:10.37,2013-08-08 19:06:00,
2013-08-08 14:11:00,103.8,57.5,29.80,NE,45,5.8,5.8,22,0.00,CLR,,0.00,WeatherDisplay:10.37,2013-08-08 19:11:00,
2013-08-08 14:16:00,104.2,52.3,29.80,North,0,3.8,3.8,18,0.00,CLR,,0.00,WeatherDisplay:10.37,2013-08-08 19:16:00,
2013-08-08 14:21:00,104.0,50.6,29.80,NW,315,4.6,4.6,17,0.00,CLR,,0.00,WeatherDisplay:10.37,2013-08-08 19:21:00,
2013-08-08 14:26:00,105.1,54.5,29.80,East,90,2.3,2.3,19,0.00,CLR,,0.00,WeatherDisplay:10.37,2013-08-08 19:26:00,
2013-08-08 14:29:00,59.9,55.4,30.10,NE,45,2.2,2.2,85,0.00,,,0.00,Cumulus v1.9.2,2013-08-08 19:29:00,
2013-08-08 14:31:00,106.0,55.2,29.79,SE,135,2.3,0.0,19,0.00,CLR,,0.00,WeatherDisplay:10.37,2013-08-08 19:31:00,
2013-08-08 14:36:00,106.9,58.7,29.79,East,90,1.1,0.0,21,0.00,CLR,,0.00,WeatherDisplay:10.37,2013-08-08 19:36:00,
2013-08-08 14:41:00,107.2,49.8,29.79,SE,135,2.3,2.3,15,0.00,CLR,,0.00,WeatherDisplay:10.37,2013-08-08 19:41:00,
2013-08-08 14:46:00,106.9,51.2,29.79,NE,45,5.8,5.8,16,0.00,CLR,,0.00,WeatherDisplay:10.37,2013-08-08 19:46:00,
2013-08-08 14:51:00,106.9,54.4,29.80,East,90,3.5,3.5,18,0.00,CLR,,0.00,WeatherDisplay:10.37,2013-08-08 19:51:00,
2013-08-08 14:56:00,106.3,50.8,29.79,West,270,6.9,6.9,16,0.00,CLR,,0.00,WeatherDisplay:10.37,2013-08-08 19:56:00,
2013-08-08 14:59:00,59.2,55.3,30.11,NNE,22,2.2,2.2,87,0.00,,,0.00,Cumulus v1.9.2,2013-08-08 19:59:00,
2013-08-08 15:01:00,105.8,53.6,29.79,East,90,3.5,0.0,18,0.00,CLR,,0.00,WeatherDisplay:10.37,2013-08-08 20:01:00,
2013-08-08 15:06:00,105.4,53.3,29.79,West,270,3.5,3.5,18,0.00,CLR,,0.00,WeatherDisplay:10.37,2013-08-08 20:06:00,
2013-08-08 15:11:00,105.6,48.5,29.78,West,270,3.5,3.5,15,0.00,CLR,,0.00,WeatherDisplay:10.37,2013-08-08 20:11:00,
2013-08-08 15:16:00,104.5,52.6,29.78,South,180,2.3,0.0,18,0.00,CLR,,0.00,WeatherDisplay:10.37,2013-08-08 20:16:00,
2013-08-08 15:21:00,104.7,54.2,29.78,West,270,1.1,3.8,19,0.00,CLR,,0.00,WeatherDisplay:10.37,2013-08-08 20:21:00,
2013-08-08 15:26:00,105.1,53.0,29.77,North,0,2.3,2.3,18,0.00,CLR,,0.00,WeatherDisplay:10.37,2013-08-08 20:26:00,
2013-08-08 15:29:00,58.6,55.4,30.11,North,360,2.2,2.2,89,0.00,,,0.00,Cumulus v1.9.2,2013-08-08 20:29:00,
2013-08-08 15:31:00,104.9,51.3,29.77,West,270,3.5,3.5,17,0.00,CLR,,0.00,WeatherDisplay:10.37,2013-08-08 20:31:00,
2013-08-08 15:36:00,103.3,51.5,29.77,South,180,3.5,0.0,18,0.00,CLR,,0.00,WeatherDisplay:10.37,2013-08-08 20:36:00,
2013-08-08 15:41:00,102.4,55.0,29.77,South,180,3.5,3.5,21,0.00,CLR,,0.00,WeatherDisplay:10.37,2013-08-08 20:41:00,
2013-08-08 15:46:00,101.5,54.3,29.76,East,90,4.6,4.6,21,0.00,CLR,,0.00,WeatherDisplay:10.37,2013-08-08 20:46:00,
2013-08-08 15:51:00,100.9,60.8,29.77,SW,225,2.3,2.3,27,0.00,CLR,,0.00,WeatherDisplay:10.37,2013-08-08 20:51:00,
2013-08-08 15:56:00,101.1,56.5,29.76,West,270,2.3,2.3,23,0.00,CLR,,0.00,WeatherDisplay:10.37,2013-08-08 20:56:00,
2013-08-08 15:59:00,57.6,54.6,30.12,North,360,2.2,2.2,90,0.00,,,0.00,Cumulus v1.9.2,2013-08-08 20:59:00,
2013-08-08 16:01:00,101.7,62.5,29.77,SE,135,2.3,0.0,28,0.00,CLR,,0.00,WeatherDisplay:10.37,2013-08-08 21:01:00,
2013-08-08 16:06:00,101.5,59.1,29.77,SE,135,2.3,0.0,25,0.00,CLR,,0.00,WeatherDisplay:10.37,2013-08-08 21:06:00,
2013-08-08 16:11:00,100.9,56.3,29.76,North,0,4.6,4.6,23,0.00,CLR,,0.00,WeatherDisplay:10.37,2013-08-08 21:11:00,
2013-08-08 16:16:00,100.9,59.8,29.76,SW,225,3.5,3.5,26,0.00,CLR,,0.00,WeatherDisplay:10.37,2013-08-08 21:16:00,
2013-08-08 16:21:00,100.4,61.4,29.76,SW,225,3.5,3.5,28,0.00,CLR,,0.00,WeatherDisplay:10.37,2013-08-08 21:21:00,
2013-08-08 16:27:00,99.7,62.7,29.76,SE,135,3.5,3.5,30,0.00,CLR,,0.00,WeatherDisplay:10.37,2013-08-08 21:27:00,
2013-08-08 16:29:00,56.1,53.2,30.12,NE,45,2.2,2.2,90,0.00,,,0.00,Cumulus v1.9.2,2013-08-08 21:29:00,
2013-08-08 16:32:00,99.7,65.5,29.76,West,270,3.5,3.5,33,0.00,CLR,,0.00,WeatherDisplay:10.37,2013-08-08 21:32:00,
2013-08-08 16:37:00,100.2,62.2,29.76,NW,315,3.5,3.5,29,0.00,CLR,,0.00,WeatherDisplay:10.37,2013-08-08 21:37:00,
2013-08-08 16:42:00,100.8,60.7,29.76,SE,135,1.1,0.0,27,0.00,CLR,,0.00,WeatherDisplay:10.37,2013-08-08 21:42:00,
2013-08-08 16:47:00,101.1,57.7,29.76,SE,135,4.6,4.6,24,0.00,CLR,,0.00,WeatherDisplay:10.37,2013-08-08 21:47:00,
2013-08-08 16:52:00,100.4,54.7,29.76,East,90,5.8,5.8,22,0.00,CLR,,0.00,WeatherDisplay:10.37,2013-08-08 21:52:00,
2013-08-08 16:58:00,100.2,61.2,29.76,SE,135,2.3,0.0,28,0.00,CLR,,0.00,WeatherDisplay:10.37,2013-08-08 21:58:00,
2013-08-08 16:59:00,55.0,52.8,30.12,North,360,1.6,1.6,92,0.00,,,0.00,Cumulus v1.9.2,2013-08-08 21:59:00,
2013-08-08 17:03:00,100.8,60.7,29.76,SW,225,2.2,0.0,27,0.00,CLR,,0.00,WeatherDisplay:10.37,2013-08-08 22:03:00,
2013-08-08 17:09:00,100.9,60.8,29.76,South,180,1.1,0.0,27,0.00,CLR,,0.00,WeatherDisplay:10.37,2013-08-08 22:09:00,
2013-08-08 17:15:00,101.1,57.7,29.76,East,90,1.6,0.0,24,0.00,CLR,,0.00,WeatherDisplay:10.37,2013-08-08 22:15:00,
2013-08-08 17:20:00,100.9,63.8,29.76,SW,225,1.1,0.0,30,0.00,CLR,,0.00,WeatherDisplay:10.37,2013-08-08 22:20:00,
2013-08-08 17:25:00,100.4,64.3,29.76,South,180,1.1,0.0,31,0.00,CLR,,0.00,WeatherDisplay:10.37,2013-08-08 22:25:00,
2013-08-08 17:29:00,54.1,52.2,30.12,North,360,1.6,1.6,93,0.00,,,0.00,Cumulus v1.9.2,2013-08-08 22:29:00,
2013-08-08 17:30:00,99.9,63.8,29.76,SW,225,4.6,4.6,31,0.00,CLR,,0.00,WeatherDisplay:10.37,2013-08-08 22:30:00,
2013-08-08 17:35:00,99.1,57.1,29.76,SE,135,3.5,3.5,25,0.00,CLR,,0.00,WeatherDisplay:10.37,2013-08-08 22:35:00,
2013-08-08 17:40:00,98.6,63.6,29.75,West,270,1.1,0.0,32,0.00,CLR,,0.00,WeatherDisplay:10.37,2013-08-08 22:40:00,
2013-08-08 17:45:00,98.2,60.5,29.75,SE,135,2.3,2.3,29,0.00,CLR,,0.00,WeatherDisplay:10.37,2013-08-08 22:45:00,
2013-08-08 17:50:00,98.2,62.4,29.75,SE,135,2.3,2.3,31,0.00,CLR,,0.00,WeatherDisplay:10.37,2013-08-08 22:50:00,
2013-08-08 17:55:00,98.6,67.0,29.75,South,180,1.6,0.0,36,0.00,CLR,,0.00,WeatherDisplay:10.37,2013-08-08 22:55:00,
2013-08-08 17:59:00,53.1,51.1,30.12,East,90,0.0,0.0,93,0.00,,,0.00,Cumulus v1.9.2,2013-08-08 22:59:00,
2013-08-08 18:00:00,98.6,64.5,29.76,West,270,1.1,0.0,33,0.00,CLR,,0.00,WeatherDisplay:10.37,2013-08-08 23:00:00,
2013-08-08 18:07:00,98.4,66.1,29.75,East,90,1.1,0.0,35,0.00,CLR,,0.00,WeatherDisplay:10.37,2013-08-08 23:07:00,
2013-08-08 18:12:00,97.9,65.6,29.75,South,180,2.3,2.3,35,0.00,CLR,,0.00,WeatherDisplay:10.37,2013-08-08 23:12:00,
2013-08-08 18:17:00,97.2,66.6,29.75,SE,135,1.1,0.0,37,0.00,CLR,,0.00,WeatherDisplay:10.37,2013-08-08 23:17:00,
2013-08-08 18:22:00,96.6,66.1,29.75,SE,135,3.5,0.0,37,0.00,CLR,,0.00,WeatherDisplay:10.37,2013-08-08 23:22:00,
2013-08-08 18:27:00,96.4,68.2,29.75,South,180,1.1,1.1,40,0.00,CLR,,0.00,WeatherDisplay:10.37,2013-08-08 23:27:00,
2013-08-08 18:29:00,52.3,50.7,30.13,NE,45,0.0,0.0,94,0.00,,,0.00,Cumulus v1.9.2,2013-08-08 23:29:00,
2013-08-08 18:32:00,95.5,68.1,29.75,SW,225,1.1,0.0,41,0.00,CLR,,0.00,WeatherDisplay:10.37,2013-08-08 23:32:00,
2013-08-08 18:38:00,95.0,69.0,29.75,South,180,1.1,0.0,43,0.00,CLR,,0.00,WeatherDisplay:10.37,2013-08-08 23:38:00,
2013-08-08 18:43:00,94.3,68.3,29.75,NW,315,1.1,0.0,43,0.00,CLR,,0.00,WeatherDisplay:10.37,2013-08-08 23:43:00,
2013-08-08 18:48:00,93.9,69.4,29.75,South,180,0.0,0.0,45,0.00,CLR,,0.00,WeatherDisplay:10.37,2013-08-08 23:48:00,
2013-08-08 18:53:00,93.4,69.5,29.75,South,180,0.0,0.0,46,0.00,CLR,,0.00,WeatherDisplay:10.37,2013-08-08 23:53:00,
2013-08-08 18:58:00,92.8,69.0,29.75,East,90,1.1,0.0,46,0.00,CLR,,0.00,WeatherDisplay:10.37,2013-08-08 23:58:00,
2013-08-08 18:59:00,51.8,50.4,30.12,East,90,0.0,0.0,95,0.00,,,0.00,Cumulus v1.9.2,2013-08-08 23:59:00,
2013-08-08 19:03:00,92.5,69.9,29.75,East,90,1.1,0.0,48,0.00,CLR,,0.00,WeatherDisplay:10.37,2013-08-09 00:03:00,
2013-08-08 19:08:00,91.9,70.0,29.75,South,180,1.1,0.0,49,0.00,CLR,,0.00,WeatherDisplay:10.37,2013-08-09 00:08:00,
2013-08-08 19:14:00,91.6,70.3,29.75,SW,225,0.0,0.0,50,0.00,CLR,,0.00,WeatherDisplay:10.37,2013-08-09 00:14:00,
2013-08-08 19:19:00,91.2,69.4,29.75,SW,225,0.0,0.0,49,0.00,CLR,,0.00,WeatherDisplay:10.37,2013-08-09 00:19:00,
2013-08-08 19:24:00,90.7,69.5,29.75,SW,225,0.0,0.0,50,0.00,CLR,,0.00,WeatherDisplay:10.37,2013-08-09 00:24:00,
2013-08-08 19:29:00,90.3,69.2,29.75,West,270,1.1,0.0,50,0.00,CLR,,0.00,WeatherDisplay:10.37,2013-08-09 00:29:00,
2013-08-08 19:34:00,89.8,69.3,29.75,West,264,0.0,1.0,51,0.00,CLR,,0.00,WeatherDisplay:10.37,2013-08-09 00:34:00,
2013-08-08 19:39:00,89.4,69.4,29.75,West,270,0.0,0.0,52,0.00,CLR,,0.00,WeatherDisplay:10.37,2013-08-09 00:39:00,
2013-08-08 19:44:00,89.1,69.2,29.76,West,270,0.0,2.0,52,0.00,CLR,,0.00,WeatherDisplay:10.37,2013-08-09 00:44:00,
2013-08-08 19:49:00,88.5,69.2,29.75,East,90,0.0,1.0,53,0.00,CLR,,0.00,WeatherDisplay:10.37,2013-08-09 00:49:00,
2013-08-08 19:54:00,88.2,69.4,29.75,East,90,0.0,0.0,54,0.00,CLR,,0.00,WeatherDisplay:10.37,2013-08-09 00:54:00,
2013-08-08 19:59:00,87.6,68.9,29.75,East,90,0.0,0.0,54,0.00,CLR,,0.00,WeatherDisplay:10.37,2013-08-09 00:59:00,
2013-08-08 20:04:00,87.3,68.6,29.75,East,90,0.0,0.0,54,0.00,CLR,,0.00,WeatherDisplay:10.37,2013-08-09 01:04:00,
2013-08-08 20:11:00,86.7,68.6,29.75,East,90,0.0,0.0,55,0.00,CLR,,0.00,WeatherDisplay:10.37,2013-08-09 01:11:00,
2013-08-08 20:16:00,86.4,68.8,29.75,East,90,0.0,0.0,56,0.00,CLR,,0.00,WeatherDisplay:10.37,2013-08-09 01:16:00,
2013-08-08 20:21:00,86.2,68.6,29.75,East,90,0.0,0.0,56,0.00,CLR,,0.00,WeatherDisplay:10.37,2013-08-09 01:21:00,
2013-08-08 20:26:00,85.6,68.7,29.75,East,90,0.0,0.0,57,0.00,CLR,,0.00,WeatherDisplay:10.37,2013-08-09 01:26:00,
2013-08-08 20:29:00,50.5,49.4,30.12,North,360,0.7,0.7,96,0.00,,,0.00,Cumulus v1.9.2,2013-08-09 01:29:00,
2013-08-08 20:32:00,85.3,68.8,29.76,East,90,0.0,0.0,58,0.00,CLR,,0.00,WeatherDisplay:10.37,2013-08-09 01:32:00,
2013-08-08 20:37:00,85.1,69.2,29.76,East,90,0.0,0.0,59,0.00,CLR,,0.00,WeatherDisplay:10.37,2013-08-09 01:37:00,
2013-08-08 20:42:00,84.9,69.0,29.75,East,90,0.0,0.0,59,0.00,CLR,,0.00,WeatherDisplay:10.37,2013-08-09 01:42:00,
2013-08-08 20:47:00,84.6,69.1,29.75,East,90,0.0,0.0,60,0.00,CLR,,0.00,WeatherDisplay:10.37,2013-08-09 01:47:00,
2013-08-08 20:52:00,84.2,68.8,29.75,East,90,1.1,0.0,60,0.00,CLR,,0.00,WeatherDisplay:10.37,2013-08-09 01:52:00,
2013-08-08 20:57:00,84.0,69.1,29.76,East,90,0.0,0.0,61,0.00,CLR,,0.00,WeatherDisplay:10.37,2013-08-09 01:57:00,
2013-08-08 20:59:00,50.7,49.9,30.11,North,360,1.6,1.6,97,0.00,,,0.00,Cumulus v1.9.2,2013-08-09 01:59:00,
2013-08-08 21:02:00,84.0,69.1,29.75,East,90,0.0,0.0,61,0.00,CLR,,0.00,WeatherDisplay:10.37,2013-08-09 02:02:00,
2013-08-08 21:07:00,83.8,69.0,29.75,East,90,1.6,0.0,61,0.00,CLR,,0.00,WeatherDisplay:10.37,2013-08-09 02:07:00,
2013-08-08 21:12:00,83.8,69.0,29.75,East,90,1.1,0.0,61,0.00,CLR,,0.00,WeatherDisplay:10.37,2013-08-09 02:12:00,
2013-08-08 21:17:00,83.8,69.0,29.75,NW,315,1.1,0.0,61,0.00,CLR,,0.00,WeatherDisplay:10.37,2013-08-09 02:17:00,
2013-08-08 21:22:00,83.8,69.0,29.75,SE,135,1.1,1.1,61,0.00,CLR,,0.00,WeatherDisplay:10.37,2013-08-09 02:22:00,
2013-08-08 21:27:00,83.8,69.0,29.75,NE,45,1.1,0.0,61,0.00,CLR,,0.00,WeatherDisplay:10.37,2013-08-09 02:27:00,
2013-08-08 21:29:00,50.4,49.5,30.12,North,360,1.6,1.6,97,0.00,,,0.00,Cumulus v1.9.2,2013-08-09 02:29:00,
2013-08-08 21:32:00,83.7,68.8,29.76,NW,315,1.1,0.0,61,0.00,CLR,,0.00,WeatherDisplay:10.37,2013-08-09 02:32:00,
2013-08-08 21:38:00,83.5,68.6,29.76,NE,45,1.1,0.0,61,0.00,CLR,,0.00,WeatherDisplay:10.37,2013-08-09 02:38:00,
2013-08-08 21:43:00,83.5,68.6,29.76,West,270,1.1,0.0,61,0.00,CLR,,0.00,WeatherDisplay:10.37,2013-08-09 02:43:00,
2013-08-08 21:48:00,83.3,68.9,29.77,West,270,0.0,0.0,62,0.00,CLR,,0.00,WeatherDisplay:10.37,2013-08-09 02:48:00,
2013-08-08 21:53:00,83.1,68.7,29.77,West,270,1.1,0.0,62,0.00,CLR,,0.00,WeatherDisplay:10.37,2013-08-09 02:53:00,
2013-08-08 21:58:00,82.9,68.6,29.77,West,270,0.0,0.0,62,0.00,CLR,,0.00,WeatherDisplay:10.37,2013-08-09 02:58:00,
2013-08-08 21:59:00,50.2,49.4,30.12,North,360,0.7,0.7,97,0.00,,,0.00,Cumulus v1.9.2,2013-08-09 02:59:00,
2013-08-08 22:04:00,83.1,68.7,29.77,West,270,0.0,0.0,62,0.00,CLR,,0.00,WeatherDisplay:10.37,2013-08-09 03:04:00,
2013-08-08 22:09:00,82.8,68.9,29.78,South,180,0.0,0.0,63,0.00,CLR,,0.00,WeatherDisplay:10.37,2013-08-09 03:09:00,
2013-08-08 22:14:00,82.6,69.2,29.78,West,270,1.1,0.0,64,0.00,CLR,,0.00,WeatherDisplay:10.37,2013-08-09 03:14:00,
2013-08-08 22:19:00,82.4,69.9,29.78,SE,135,1.1,0.0,66,0.00,CLR,,0.00,WeatherDisplay:10.37,2013-08-09 03:19:00,
2013-08-08 22:24:00,82.4,69.9,29.78,SE,135,1.1,0.0,66,0.00,CLR,,0.00,WeatherDisplay:10.37,2013-08-09 03:24:00,
2013-08-08 22:29:00,82.2,70.2,29.79,SE,135,1.1,0.0,67,0.00,CLR,,0.00,WeatherDisplay:10.37,2013-08-09 03:29:00,
2013-08-08 22:34:00,82.2,70.2,29.79,South,180,1.1,0.0,67,0.00,CLR,,0.00,WeatherDisplay:10.37,2013-08-09 03:34:00,
2013-08-08 22:39:00,82.2,70.2,29.80,South,180,1.1,0.0,67,0.00,CLR,,0.00,WeatherDisplay:10.37,2013-08-09 03:39:00,
2013-08-08 22:44:00,82.0,70.0,29.79,SE,135,1.1,0.0,67,0.00,CLR,,0.00,WeatherDisplay:10.37,2013-08-09 03:44:00,
2013-08-08 22:49:00,82.0,70.4,29.80,South,180,0.0,0.0,68,0.00,CLR,,0.00,WeatherDisplay:10.37,2013-08-09 03:49:00,
2013-08-08 22:54:00,82.0,70.4,29.80,West,270,1.1,0.0,68,0.00,CLR,,0.00,WeatherDisplay:10.37,2013-08-09 03:54:00,
2013-08-08 22:59:00,82.0,70.4,29.80,West,262,0.0,1.0,68,0.00,CLR,,0.00,WeatherDisplay:10.37,2013-08-09 03:59:00,
2013-08-08 23:01:00,82.0,70.4,29.80,West,270,0.0,0.0,68,0.00,CLR,,0.00,WeatherDisplay:10.37,2013-08-09 04:01:00,
2013-08-08 23:02:00,82.0,70.4,29.80,North,0,0.0,0.0,68,0.00,CLR,,0.00,WeatherDisplay:10.37,2013-08-09 04:02:00,
2013-08-08 23:03:00,82.0,70.4,29.80,North,0,1.1,0.0,68,0.00,CLR,,0.00,WeatherDisplay:10.37,2013-08-09 04:03:00,
2013-08-08 23:05:00,81.9,70.3,29.80,North,0,0.0,0.0,68,0.00,CLR,,0.00,WeatherDisplay:10.37,2013-08-09 04:05:00,
2013-08-08 23:10:00,81.9,70.3,29.80,SE,135,1.1,0.0,68,0.00,CLR,,0.00,WeatherDisplay:10.37,2013-08-09 04:10:00,
2013-08-08 23:15:00,81.7,70.5,29.81,SE,135,0.0,0.0,69,0.00,CLR,,0.00,WeatherDisplay:10.37,2013-08-09 04:15:00,
2013-08-08 23:20:00,81.5,70.8,29.81,East,90,1.1,0.0,70,0.00,CLR,,0.00,WeatherDisplay:10.37,2013-08-09 04:20:00,
2013-08-08 23:25:00,81.3,70.6,29.81,East,90,1.1,0.0,70,0.00,CLR,,0.00,WeatherDisplay:10.37,2013-08-09 04:25:00,
2013-08-08 23:29:00,49.8,49.3,30.10,North,360,1.6,1.6,98,0.00,,,0.00,Cumulus v1.9.2,2013-08-09 04:29:00,
2013-08-08 23:30:00,81.3,70.6,29.81,South,180,1.1,0.0,70,0.00,CLR,,0.00,WeatherDisplay:10.37,2013-08-09 04:30:00,
2013-08-08 23:35:00,81.3,70.6,29.82,South,180,0.0,0.0,70,0.00,CLR,,0.00,WeatherDisplay:10.37,2013-08-09 04:35:00,
2013-08-08 23:40:00,81.1,70.8,29.81,South,180,0.0,0.0,71,0.00,CLR,,0.00,WeatherDisplay:10.37,2013-08-09 04:40:00,
2013-08-08 23:45:00,81.0,70.7,29.82,South,180,0.0,0.0,71,0.00,CLR,,0.00,WeatherDisplay:10.37,2013-08-09 04:45:00,
2013-08-08 23:50:00,81.0,71.1,29.82,SW,225,1.1,0.0,72,0.00,CLR,,0.00,WeatherDisplay:10.37,2013-08-09 04:50:00,
2013-08-08 23:55:00,80.8,70.9,29.82,SW,225,0.0,0.0,72,0.00,CLR,,0.00,WeatherDisplay:10.37,2013-08-09 04:55:00,
2013-08-08 23:59:00,49.1,48.6,30.10,North,360,1.6,1.6,98,0.00,,,0.00,Cumulus v1.9.2,2013-08-09 04:59:00,